Terminal Aerodrome Forecast
Issued by NWS

Home | Current Version | Previous Version | Text Only | Print | Product List | Glossary On
Versions: 1 2 3 4 5 6 7 8 9 10 11 12 13 14 15 16 17 18
000
FTUS43 KGRR 241600 AAB
TAFMKG
TAF AMD
KMKG 241650Z 2417/2512 26004KT P6SM BKN015
     FM241900 23007KT P6SM BKN025
     FM242100 23009KT P6SM SCT035
     FM250900 22010KT P6SM OVC020=

USA.gov is the U.S. government's official web portal to all federal, state and local government web resources and services.